Content
SEND FEEDBACK

Daily
Averages
Monthly
Summary
United States of America

BERKELEY, MISSOURI


Home > North America > United States > Missouri
Elevation: 564 feet     Latitude: 38 45N     Longitude: 090 22W

WEATHER
 
SELECT A DAY
Number of Records: 203,490;   Date Range: 1/1/95 - 8/12/14
 
SHARE

PRINT THIS DATA

[ ← Previous Day ]
WEATHER ALMANAC - MARCH 25, 2013
[ Next Day → ]
[ °C ]   °F
Weather ElementAverageHighLow
Temperature32.3 °F36 °F (1:51 pm)30 °F (6:51 am)
Dewpoint26.5 °F28.9 °F (12:51 pm)21.9 °F (11:51 pm)
Humidity79.6 %93 % (3:10 am)69 % (8:51 pm)
Barometer29.98 in30.22 in (10:51 pm)29.84 in (3:10 am)
Wind Speed14.5 mph19.6 mph (6:30 am)
Wind Gust25.3 mph (3:10 am)
Weather ElementAverage
Visibility5 mi
Wind DirectionWNW (293.4 °)

Weather ElementTotal
Precipitation0.06 in
Heating Degree Days32 (Base 65)
Averaged from 50 records on March 25, 2013
WEATHER CONDITIONS BREAKOUT
WIND DIRECTION BREAKOUT
WEATHER BY HOUR - MARCH 25, 2013
[ °C ]   °F
Local TimeTemperatureDewpointHumidityBarometerVisibilityWind DirectionWind SpeedGust SpeedPrecipitationEventsConditions
1:51 AM32.0 °F28.0 °F85 %29.88 in1.8 miWNW (290°)13.8 mph23.0 mph0.01 inSnowLight Snow
2:02 AM32.0 °F28.4 °F87 %29.85 in2.5 miWNW (290°)16.1 mph23.0 mph0.01 inSnowLight Snow
2:48 AM32.0 °F28.4 °F87 %29.85 in2.5 miWNW (290°)15.0 mph0.01 inSnowLight Snow
2:51 AM32.0 °F28.0 °F85 %29.88 in2.5 miWNW (290°)13.8 mph0.01 inSnowLight Snow
2:57 AM32.0 °F28.4 °F87 %29.85 in3.0 miWNW (290°)15.0 mph0.00 inSnowLight Snow
3:10 AM30.2 °F28.4 °F93 %29.84 in5.0 miWNW (290°)17.3 mph25.3 mph0.00 inSnowLight Snow
3:41 AM30.2 °F26.6 °F86 %29.85 in7.0 miWNW (290°)16.1 mph24.2 mph0.00 inSnowLight Snow
3:51 AM30.9 °F27.0 °F85 %29.88 in7.0 miWNW (290°)16.1 mph24.2 mph0.00 inSnowLight Snow
4:51 AM30.9 °F27.0 °F85 %29.88 in6.0 miWNW (290°)17.3 mph25.3 mph0.00 inSnowLight Snow
5:01 AM30.2 °F26.6 °F86 %29.85 in6.0 miWNW (290°)17.3 mph0.00 inSnowLight Snow
5:08 AM30.2 °F26.6 °F86 %29.85 in6.0 miWNW (290°)18.4 mph24.2 mph0.00 inSnowLight Snow
5:32 AM30.2 °F26.6 °F86 %29.86 in2.0 miWNW (290°)13.8 mph0.00 inSnowLight Snow
5:51 AM30.9 °F27.0 °F85 %29.90 in2.5 miWNW (290°)13.8 mph21.9 mph0.00 inSnowLight Snow
6:11 AM30.2 °F26.6 °F86 %29.87 in3.0 miWNW (290°)16.1 mph23.0 mph0.00 inSnowLight Snow
6:30 AM30.2 °F26.6 °F86 %29.88 in3.0 miWest (280°)19.6 mph24.2 mph0.00 inSnowLight Snow
6:51 AM30.0 °F26.1 °F85 %29.92 in3.0 miWest (280°)17.3 mph0.00 inSnowLight Snow
7:02 AM30.2 °F26.6 °F86 %29.89 in2.5 miWest (280°)16.1 mph0.00 inSnowLight Snow
7:19 AM30.2 °F26.6 °F86 %29.90 in3.0 miWest (280°)18.4 mph24.2 mph0.00 inSnowLight Snow
7:32 AM30.2 °F24.8 °F80 %29.90 in3.0 miWest (280°)17.3 mph0.00 inSnowLight Snow
7:51 AM30.0 °F25.0 °F82 %29.95 in3.0 miWest (280°)18.4 mph0.00 inSnowLight Snow
8:00 AM30.2 °F24.8 °F80 %29.91 in3.0 miWest (280°)17.3 mph0.00 inSnowLight Snow
8:15 AM30.2 °F24.8 °F80 %29.92 in2.5 miWNW (290°)18.4 mph0.00 inSnowLight Snow
8:51 AM30.0 °F26.1 °F85 %29.97 in2.5 miWNW (290°)17.3 mph0.00 inSnowLight Snow
9:14 AM30.2 °F26.6 °F86 %29.94 in1.5 miWNW (290°)17.3 mph0.00 inSnowLight Snow
9:42 AM30.2 °F26.6 °F86 %29.95 in2.0 miWNW (290°)17.3 mph0.00 inSnowLight Snow
9:51 AM30.9 °F27.0 °F85 %29.99 in2.0 miWNW (290°)16.1 mph0.00 inSnowLight Snow
10:15 AM32.0 °F26.6 °F80 %29.96 in3.0 miWNW (290°)18.4 mph0.00 inSnowLight Snow
10:51 AM33.1 °F28.0 °F82 %30.01 in3.0 miWNW (290°)18.4 mph24.2 mph0.00 inSnowLight Snow
11:46 AM33.8 °F28.4 °F81 %30.00 in1.5 miWNW (300°)12.7 mph23.0 mph0.00 inSnowLight Snow
11:51 AM34.0 °F28.0 °F79 %30.03 in1.5 miWNW (300°)13.8 mph0.00 inSnowLight Snow
12:41 PM35.6 °F28.4 °F75 %30.01 in1.5 miWNW (300°)12.7 mph20.7 mph0.01 inSnowLight Snow
12:51 PM34.0 °F28.9 °F82 %30.04 in1.5 miWNW (300°)12.7 mph0.01 inSnowLight Snow
1:03 PM35.6 °F28.4 °F75 %30.01 in2.5 miWNW (300°)11.5 mph21.9 mph0.00 inSnowLight Snow
1:18 PM35.6 °F28.4 °F75 %30.01 in3.0 miWNW (300°)11.5 mph0.00 inSnowLight Snow
1:31 PM35.6 °F26.6 °F70 %30.01 in7.0 miNW (310°)19.6 mph23.0 mph0.00 inOvercast
1:47 PM35.6 °F26.6 °F70 %30.01 in8.0 miNW (320°)17.3 mph0.00 inOvercast
1:51 PM36.0 °F27.0 °F70 %30.04 in8.0 miNW (310°)13.8 mph23.0 mph0.00 inOvercast
2:34 PM35.6 °F28.4 °F75 %30.02 in9.0 miWNW (300°)10.4 mph0.00 inSnowLight Snow
2:51 PM36.0 °F28.0 °F73 %30.06 in8.0 miWNW (300°)12.7 mph0.00 inSnowLight Snow
3:34 PM35.6 °F26.6 °F70 %30.04 in7.0 miNW (310°)11.5 mph0.00 inSnowLight Snow
3:51 PM35.1 °F27.0 °F72 %30.08 in8.0 miNW (310°)10.4 mph0.00 inSnowLight Snow
4:23 PM33.8 °F26.6 °F75 %30.06 in9.0 miWNW (300°)9.2 mph19.6 mph0.00 inSnowLight Snow
4:51 PM34.0 °F26.1 °F73 %30.10 in9.0 miWNW (300°)10.4 mph0.00 inSnowLight Snow
5:51 PM34.0 °F25.0 °F70 %30.12 in10.0 miWNW (300°)9.2 mph0.00 inOvercast
6:51 PM33.1 °F24.1 °F70 %30.15 in10.0 miWNW (300°)10.4 mphOvercast
7:51 PM33.1 °F24.1 °F70 %30.18 in10.0 miWNW (300°)10.4 mphOvercast
8:51 PM32.0 °F23.0 °F69 %30.20 in10.0 miWNW (290°)10.4 mphMostly Cloudy
9:51 PM32.0 °F23.0 °F69 %30.21 in10.0 miWNW (290°)8.1 mphMostly Cloudy
10:51 PM30.9 °F23.0 °F72 %30.22 in10.0 miWNW (290°)9.2 mphMostly Cloudy
11:51 PM30.9 °F21.9 °F69 %30.22 in10.0 miWNW (290°)9.2 mphMostly Cloudy
Hourly data recorded from KSTL, located miles away from Berkeley, Missouri







STORIES FROM OUR PARTNERS